Flag for Canada Weather past 2 weeks in St. Catharines, Ontario, Canada

Now
72 °F

Mild.


Feels Like: 71 °F
Forecast: 67 / 82 °F
Wind: 7 mph from Southwest

Location: Port Colborne Airport

Current Time: Aug 31, 2015 at 2:55:17 AM

Latest Report: Aug 31, 2015 at 2:00 AM


Visibility: N/A

Pressure: 30.02 "Hg

Humidity: 85%

Dew point: 67 °F

Location of St. CatharinesLocation

Historic Weather in St. Catharines — Graph

°F

St. Catharines temperature yesterday

Maximum temperature yesterday: 72 °F (at 10:00 PM)
Minimum temperature yesterday: 66 °F (at 7:00 AM)
Average temperature yesterday: 70 °F

Past Weeks' High & Low Weather Summary

 TemperatureHumidityPressure
High85 °F (Aug 19, 6:00 PM)96% (Aug 17, 10:00 PM)30.23 "Hg (Aug 17, 10:00 PM)
Low58 °F (Aug 27, 3:00 AM)40% (Aug 23, 6:00 PM)29.75 "Hg (Aug 20, 6:00 AM)
Average69 °F71%30.03 "Hg
* Reported Aug 16 1:00 AM — Aug 31 1:00 AM, St. Catharines, Weather by CustomWeather, © 2015

Note: Actual official high and low records may vary slightly from our data, if they occured in-between our weather recording intervals... More about our weather records

Advertising

St. Catharines weather history for previous 24 hours

 ConditionsComfort  
Time TempWeatherWind HumidityBarometerVisibility
1:00 AM
Mon, Aug 31
72 °FMild.7 mph86%30.03 "HgN/A
12:00 AM72 °FMild.7 mph86%30.03 "HgN/A
11:00 PM
Sun, Aug 30
72 °FMild.6 mph83%30.04 "HgN/A
10:00 PM72 °FMild.7 mph82%30.04 "HgN/A
9:00 PM72 °FMild.6 mph82%30.05 "HgN/A
8:00 PM72 °FMild.6 mph83%30.03 "HgN/A
7:00 PM72 °FMild.7 mph83%30.03 "HgN/A
6:00 PM71 °FMild.9 mph84%30.04 "HgN/A
5:00 PM72 °FMild.12 mph81%30.04 "HgN/A
4:00 PM72 °FMild.12 mph82%30.06 "HgN/A
3:00 PM71 °FMild.14 mph82%30.08 "HgN/A
2:00 PM71 °FMild.13 mph78%30.08 "HgN/A
1:00 PM71 °FMild.12 mph77%30.10 "HgN/A
12:00 PM71 °FMild.7 mph77%30.11 "HgN/A
11:00 AM71 °FMild.3 mph75%30.10 "HgN/A
10:00 AM70 °FMild.3 mph70%30.10 "HgN/A
9:00 AM68 °FMild.5 mph78%30.10 "HgN/A
8:00 AM67 °FMild.5 mph82%30.09 "HgN/A
7:00 AM66 °FMild.7 mph82%30.08 "HgN/A
6:00 AM67 °FMild.3 mph75%30.07 "HgN/A
5:00 AM68 °FMild.7 mph73%30.06 "HgN/A
4:00 AM69 °FMild.3 mph68%30.06 "HgN/A
3:00 AM70 °FMild.6 mph75%30.05 "HgN/A
2:00 AM70 °FMild.2 mph70%30.07 "HgN/A
Weather by CustomWeather, © 2015

See weather overviewHow to use our weather pages